Home > Weather > Alexandria > Past weeks

Flag for Egypt Weather for the Past 2 Weeks in Alexandria, Egypt

Now
82 °F

Clear.


Feels Like: 81 °F
Forecast: 68 / 74 °F
Wind: 2 mph from Southeast

Location: Alexandria / Nouzha

Current Time: Apr 30, 2016 at 9:33:35 PM

Latest Report: Apr 30, 2016 at 8:00 PM


Visibility: 10 mi

Pressure: 29.74 "Hg

Humidity: 26%

Dew Point: 45 °F

Location of AlexandriaLocation

Historic Weather in Alexandria — Graph

°F

Alexandria Temperature Yesterday

Maximum temperature yesterday: 82 °F (at 3:00 PM)
Minimum temperature yesterday: 63 °F (at 6:00 AM)
Average temperature yesterday: 71 °F

High & Low Weather Summary for the Past Weeks

 TemperatureHumidityPressure
High99 °F (Apr 24, 3:00 PM)100% (Apr 20, 6:00 AM)30.12 "Hg (Apr 20, 6:00 AM)
Low57 °F (Apr 21, 4:00 AM)15% (Apr 24, 3:00 PM)29.50 "Hg (Apr 24, 5:00 PM)
Average72 °F59%29.92 "Hg
* Reported Apr 15 8:00 PM — Apr 30 8:00 PM, Alexandria, Weather by CustomWeather, © 2016

Note: Actual official high and low records may vary slightly from our data, if they occured in-between our weather recording intervals... More about our weather records

Advertising

Alexandria Weather History for the Previous 24 Hours

Scroll right to see more
 ConditionsComfort  
Time TempWeatherWind HumidityBarometerVisibility
8:00 PM
Sat, Apr 30
82 °FClear.2 mph26%29.74 "Hg10 mi
7:00 PM84 °FClear.2 mph27%29.74 "Hg10 mi
6:00 PM91 °FSunny.3 mph17%29.74 "Hg10 mi
5:00 PM93 °FSunny.7 mph15%29.77 "Hg10 mi
4:00 PM93 °FSunny.8 mph15%29.77 "Hg10 mi
3:00 PM93 °FSunny.9 mph15%29.80 "Hg10 mi
2:00 PM91 °FSunny.9 mph15%29.83 "Hg10 mi
1:00 PM90 °FSunny.12 mph20%29.86 "Hg10 mi
12:00 PM86 °FSunny.9 mph24%29.86 "Hg10 mi
11:00 AM82 °FSunny.8 mph28%29.89 "Hg10 mi
10:00 AM79 °FSunny.13 mph37%29.89 "Hg10 mi
9:00 AM73 °FSunny.9 mph50%29.92 "Hg10 mi
8:00 AM68 °FClear.10 mph73%29.92 "Hg4 mi
7:00 AM64 °FClear.5 mph78%29.92 "Hg4 mi
6:00 AM59 °FClear.2 mph88%29.92 "Hg4 mi
5:00 AM61 °FClear.2 mph88%29.89 "Hg10 mi
4:00 AM61 °FClear.No wind83%29.89 "Hg10 mi
3:00 AM64 °FClear.5 mph83%29.89 "Hg10 mi
2:00 AM66 °FClear.3 mph78%29.92 "Hg10 mi
12:00 AM68 °FClear.6 mph73%29.95 "Hg10 mi
11:00 PM
Fri, Apr 29
68 °FClear.7 mph73%29.95 "Hg10 mi
10:00 PM68 °FClear.6 mph69%29.95 "Hg10 mi
9:00 PM70 °FClear.7 mph60%29.98 "Hg10 mi
Weather by CustomWeather, © 2016

See weather overviewHow to use our weather pages